Location: Conflandey
(47.7287°N, 6.0456°E)
Time: 03:23:37
(UTC+00:00)

Cosmos 2369 - Pass Details

Date: 24 October 2021
Orbit: 838 x 857 km, 71.0° (Epoch: 05 December)

Event Time Altitude Azimuth Distance (km) Brightness Sun altitude
Rises 16:58:15 0° 218° (SW) 3,385 7.7 -5.3°
Reaches altitude 10° 17:00:43 10° 222° (SW) 2,456 7.0 -5.7°
Maximum altitude 17:06:17 59° 302° (WNW) 972 4.4 -6.6°
Drops below altitude 10° 17:11:55 10° 22° (NNE) 2,484 5.8 -7.5°
Sets 17:14:26 0° 26° (NNE) 3,426 6.5 -7.9°
